Terminal Aerodrome Forecast
Issued by NWS Sioux Falls, SD

Home | Current Version | Previous Version | Text Only | Print | Product List | Glossary Off
Versions: 1 2 3 4 5 6 7 8 9 10 11 12 13 14 15 16 17 18 19 20 21 22 23 24 25 26 27 28 29 30 31 32 33 34 35 36

000
FTUS43 KFSD 011140
TAFSUX
TAF
KSUX 011140Z 0112/0212 12006KT 6SM BR SCT035 BKN090
      TEMPO 0112/0114 2SM TSRA BR BKN035CB
     FM011700 11010KT P6SM SCT035 BKN090
     FM020000 10007KT P6SM SCT050 BKN150
     FM020500 11006KT 5SM BR BKN050
     FM020900 10005KT 4SM -TSRA BR OVC035CB=

USA.gov is the U.S. government's official web portal to all federal, state and local government web resources and services.